AFL804 URMM-LTAI

Flight info

Callsign AFL804
Flight time 1h 58m
Altitude 36000
Route RESLO A944 GUBOR G487 ODIRA UW96 SIN UT61 BAG UW77 HISAR
Aircraft A320/M-SDE3FGHIRWY/LB1

Departure

Time 2026-05-05 06:19
Airport Mineralnye Vody Airport (URMM)

Arrival

Time 2026-05-05 08:18
Airport Antalya International Airport (LTAI)
Time Latitude Longitude Altitude Speed Heading
2026-05-05 06:01 44.21815 43.08898 1051 ft 0 kts 212°
2026-05-05 06:05 44.21831 43.08912 1051 ft 4 kts 216°
2026-05-05 06:05 44.21852 43.08935 1051 ft 4 kts 227°
2026-05-05 06:05 44.21865 43.08965 1051 ft 4 kts 264°
2026-05-05 06:06 44.21864 43.08984 1051 ft 0 kts 302°
2026-05-05 06:09 44.21881 43.08948 1051 ft 10 kts 302°
2026-05-05 06:10 44.21920 43.08860 1051 ft 13 kts 302°
2026-05-05 06:10 44.21973 43.08743 1051 ft 14 kts 302°
2026-05-05 06:10 44.22010 43.08634 1051 ft 12 kts 279°
2026-05-05 06:10 44.22042 43.08537 1051 ft 12 kts 302°
2026-05-05 06:11 44.22095 43.08421 1051 ft 14 kts 302°
2026-05-05 06:11 44.22142 43.08317 1051 ft 12 kts 302°
2026-05-05 06:11 44.22182 43.08227 1051 ft 10 kts 302°
2026-05-05 06:11 44.22216 43.08151 1051 ft 9 kts 302°
2026-05-05 06:12 44.22244 43.08087 1051 ft 7 kts 302°
2026-05-05 06:12 44.22272 43.08025 1051 ft 11 kts 302°
2026-05-05 06:12 44.22327 43.07903 1051 ft 16 kts 302°
2026-05-05 06:12 44.22384 43.07776 1051 ft 14 kts 301°
2026-05-05 06:13 44.22434 43.07666 1051 ft 13 kts 302°
2026-05-05 06:13 44.22477 43.07571 1051 ft 11 kts 302°
2026-05-05 06:13 44.22519 43.07478 1051 ft 13 kts 302°
2026-05-05 06:13 44.22588 43.07328 1051 ft 20 kts 302°
2026-05-05 06:14 44.22665 43.07165 1051 ft 17 kts 320°
2026-05-05 06:14 44.22781 43.07118 1051 ft 18 kts 347°
2026-05-05 06:14 44.22905 43.07079 1051 ft 19 kts 346°
2026-05-05 06:14 44.23019 43.07096 1051 ft 17 kts 64°
2026-05-05 06:15 44.23021 43.07268 1051 ft 18 kts 92°
2026-05-05 06:15 44.23016 43.07423 1052 ft 10 kts 94°
2026-05-05 06:15 44.23060 43.07468 1052 ft 12 kts 328°
2026-05-05 06:15 44.23136 43.07303 1048 ft 27 kts 302°
2026-05-05 06:16 44.23240 43.07074 1045 ft 29 kts 303°
2026-05-05 06:16 44.23350 43.06835 1046 ft 29 kts 302°
2026-05-05 06:16 44.23455 43.06599 1051 ft 28 kts 302°
2026-05-05 06:16 44.23564 43.06388 1051 ft 16 kts 308°
2026-05-05 06:17 44.23613 43.06294 1052 ft 10 kts 295°
2026-05-05 06:17 44.23582 43.06284 1051 ft 6 kts 105°
2026-05-05 06:17 44.23577 43.06329 1051 ft 4 kts 113°
2026-05-05 06:17 44.23570 43.06343 1051 ft 0 kts 122°
2026-05-05 06:18 44.23537 43.06415 1050 ft 32 kts 123°
2026-05-05 06:18 44.23287 43.06974 1046 ft 100 kts 122°
2026-05-05 06:19 44.22830 43.07984 1048 ft 148 kts 122°
2026-05-05 06:19 44.22229 43.09329 1271 ft 172 kts 121°
2026-05-05 06:19 44.21583 43.10765 1846 ft 177 kts 121°
2026-05-05 06:19 44.20915 43.12252 2400 ft 187 kts 120°
2026-05-05 06:20 44.20189 43.13895 2642 ft 212 kts 121°
2026-05-05 06:20 44.19373 43.15687 3265 ft 222 kts 121°
2026-05-05 06:20 44.18527 43.17525 3882 ft 227 kts 122°
2026-05-05 06:20 44.17671 43.19388 4677 ft 229 kts 122°
2026-05-05 06:21 44.16786 43.21317 5158 ft 248 kts 122°
2026-05-05 06:21 44.15855 43.23424 5747 ft 262 kts 116°
2026-05-05 06:21 44.15527 43.25926 6408 ft 271 kts 81°
2026-05-05 06:21 44.16301 43.28325 7115 ft 277 kts 46°
2026-05-05 06:22 44.17906 43.29736 7863 ft 280 kts 13°
2026-05-05 06:22 44.19199 43.29877 8385 ft 280 kts 350°
2026-05-05 06:22 44.20968 43.28839 9194 ft 280 kts 321°
2026-05-05 06:22 44.22813 43.26315 10271 ft 282 kts 311°
2026-05-05 06:23 44.23714 43.24924 10545 ft 295 kts 311°
2026-05-05 06:23 44.25146 43.22707 10778 ft 317 kts 311°
2026-05-05 06:23 44.26657 43.20386 11300 ft 328 kts 313°
2026-05-05 06:23 44.28149 43.17955 11953 ft 333 kts 305°
2026-05-05 06:24 44.29282 43.15108 12642 ft 337 kts 290°
2026-05-05 06:24 44.29787 43.11903 13277 ft 343 kts 272°
2026-05-05 06:24 44.29520 43.08618 13886 ft 348 kts 254°
2026-05-05 06:24 44.28820 43.05368 14465 ft 352 kts 252°
2026-05-05 06:25 44.28084 43.02095 15050 ft 356 kts 248°
2026-05-05 06:25 44.26983 42.98987 15644 ft 358 kts 236°
2026-05-05 06:25 44.25439 42.96261 16242 ft 360 kts 224°
2026-05-05 06:25 44.23536 42.93978 16827 ft 363 kts 217°
2026-05-05 06:26 44.21545 42.91772 17451 ft 366 kts 217°
2026-05-05 06:26 44.19544 42.89561 18053 ft 369 kts 217°
2026-05-05 06:26 44.17537 42.87345 18691 ft 369 kts 217°
2026-05-05 06:26 44.15512 42.85105 19201 ft 372 kts 217°
2026-05-05 06:27 44.13479 42.82849 19677 ft 376 kts 217°
2026-05-05 06:27 44.09333 42.78265 20602 ft 384 kts 216°
2026-05-05 06:27 44.07229 42.75949 21043 ft 388 kts 216°
2026-05-05 06:28 44.05120 42.73633 21491 ft 392 kts 216°
2026-05-05 06:28 44.02975 42.71278 21927 ft 396 kts 216°
2026-05-05 06:28 44.00794 42.68884 22353 ft 400 kts 216°
2026-05-05 06:28 43.98653 42.66383 22778 ft 406 kts 223°
2026-05-05 06:29 43.96861 42.63316 23183 ft 414 kts 235°
2026-05-05 06:29 43.95567 42.59700 23583 ft 421 kts 249°
2026-05-05 06:29 43.94872 42.55731 23929 ft 427 kts 262°
2026-05-05 06:29 43.94704 42.51599 24277 ft 431 kts 267°
2026-05-05 06:30 43.94595 42.47413 24629 ft 434 kts 266°
2026-05-05 06:30 43.94478 42.43217 24988 ft 437 kts 266°
2026-05-05 06:30 43.94358 42.39007 25293 ft 441 kts 266°
2026-05-05 06:30 43.94232 42.34717 25655 ft 444 kts 266°
2026-05-05 06:31 43.94105 42.30427 26009 ft 447 kts 265°
2026-05-05 06:31 43.93975 42.26155 26350 ft 449 kts 265°
2026-05-05 06:31 43.93841 42.21813 26676 ft 452 kts 265°
2026-05-05 06:31 43.93704 42.17422 26993 ft 455 kts 265°
2026-05-05 06:32 43.93565 42.13024 27314 ft 458 kts 265°
2026-05-05 06:32 43.93425 42.08599 27649 ft 461 kts 265°
2026-05-05 06:32 43.93283 42.04130 27959 ft 464 kts 265°
2026-05-05 06:32 43.93139 41.99653 28287 ft 467 kts 265°
2026-05-05 06:33 43.92995 41.95148 28584 ft 469 kts 265°
2026-05-05 06:33 43.92849 41.90619 28887 ft 472 kts 265°
2026-05-05 06:33 43.92699 41.86042 29188 ft 475 kts 265°
2026-05-05 06:33 43.92545 41.81458 29517 ft 477 kts 265°
2026-05-05 06:34 43.92388 41.76832 29796 ft 480 kts 265°
2026-05-05 06:34 43.92231 41.72211 30050 ft 482 kts 264°
2026-05-05 06:34 43.92070 41.67541 30306 ft 484 kts 264°
2026-05-05 06:34 43.91906 41.62942 30588 ft 485 kts 264°
2026-05-05 06:35 43.91736 41.58278 30881 ft 485 kts 265°
2026-05-05 06:35 43.91565 41.53617 31231 ft 483 kts 265°
2026-05-05 06:35 43.91391 41.48981 31661 ft 480 kts 265°
2026-05-05 06:35 43.91216 41.44358 32112 ft 477 kts 265°
2026-05-05 06:36 43.91040 41.39767 32561 ft 473 kts 265°
2026-05-05 06:36 43.90864 41.35228 32992 ft 471 kts 265°
2026-05-05 06:36 43.90685 41.30705 33375 ft 469 kts 265°
2026-05-05 06:36 43.90501 41.26180 33777 ft 467 kts 266°
2026-05-05 06:37 43.90318 41.21699 34130 ft 465 kts 265°
2026-05-05 06:37 43.90135 41.17236 34433 ft 463 kts 265°
2026-05-05 06:37 43.89949 41.12785 34700 ft 463 kts 265°
2026-05-05 06:37 43.89760 41.08322 34968 ft 462 kts 265°
2026-05-05 06:38 43.89573 41.03886 35235 ft 461 kts 265°
2026-05-05 06:38 43.89386 40.99455 35478 ft 461 kts 265°
2026-05-05 06:38 43.89200 40.95031 35719 ft 460 kts 265°
2026-05-05 06:38 43.89012 40.90648 35888 ft 460 kts 265°
2026-05-05 06:39 43.88820 40.86245 35921 ft 457 kts 264°
2026-05-05 06:39 43.88431 40.77471 35929 ft 457 kts 265°
2026-05-05 06:40 43.87360 40.68849 35934 ft 453 kts 249°
2026-05-05 06:40 43.84880 40.60833 35933 ft 452 kts 244°
2026-05-05 06:41 43.82335 40.52853 35935 ft 453 kts 244°
2026-05-05 06:41 43.79803 40.44884 35938 ft 453 kts 244°
2026-05-05 06:42 43.77252 40.36919 35943 ft 452 kts 244°
2026-05-05 06:42 43.74698 40.28975 35940 ft 451 kts 244°
2026-05-05 06:43 43.72145 40.21070 35953 ft 450 kts 244°
2026-05-05 06:43 43.69594 40.13217 35961 ft 450 kts 244°
2026-05-05 06:44 43.67032 40.05337 35940 ft 450 kts 244°
2026-05-05 06:44 43.64468 39.97442 35949 ft 450 kts 244°
2026-05-05 06:45 43.61901 39.89562 35939 ft 450 kts 244°
2026-05-05 06:45 43.59312 39.81656 35953 ft 452 kts 244°
2026-05-05 06:46 43.56717 39.73772 35953 ft 452 kts 244°
2026-05-05 06:46 43.54122 39.65925 35953 ft 453 kts 243°
2026-05-05 06:47 43.51489 39.58031 35956 ft 453 kts 243°
2026-05-05 06:47 43.48859 39.50157 35972 ft 453 kts 243°
2026-05-05 06:48 43.46224 39.42263 35975 ft 453 kts 243°
2026-05-05 06:48 43.43585 39.34384 35978 ft 453 kts 243°
2026-05-05 06:49 43.40942 39.26531 35979 ft 453 kts 243°
2026-05-05 06:49 43.38288 39.18671 35992 ft 452 kts 243°
2026-05-05 06:50 43.35635 39.10827 35986 ft 452 kts 243°
2026-05-05 06:50 43.33138 39.02912 35979 ft 452 kts 247°
2026-05-05 06:51 43.30948 38.94870 35980 ft 452 kts 248°
2026-05-05 06:51 43.28781 38.86731 35968 ft 453 kts 248°
2026-05-05 06:52 43.26538 38.78668 35970 ft 453 kts 247°
2026-05-05 06:52 43.24216 38.70626 35971 ft 453 kts 246°
2026-05-05 06:53 43.21877 38.62616 35969 ft 453 kts 246°
2026-05-05 06:53 43.19561 38.54635 35972 ft 453 kts 247°
2026-05-05 06:54 43.17238 38.46616 35979 ft 453 kts 247°
2026-05-05 06:54 43.14914 38.38607 35983 ft 453 kts 247°
2026-05-05 06:55 43.12571 38.30575 35987 ft 453 kts 246°
2026-05-05 06:55 43.10220 38.22563 35988 ft 453 kts 246°
2026-05-05 06:56 43.07873 38.14566 35993 ft 453 kts 247°
2026-05-05 06:56 43.05542 38.06540 35993 ft 453 kts 247°
2026-05-05 06:57 43.03229 37.98570 36001 ft 454 kts 247°
2026-05-05 06:57 43.00880 37.90570 36005 ft 453 kts 246°
2026-05-05 06:58 42.98508 37.82598 36012 ft 453 kts 246°
2026-05-05 06:58 42.96140 37.74635 36013 ft 453 kts 246°
2026-05-05 06:59 42.93760 37.66666 36013 ft 453 kts 246°
2026-05-05 06:59 42.91377 37.58732 36009 ft 452 kts 246°
2026-05-05 07:00 42.88981 37.50793 36013 ft 452 kts 246°
2026-05-05 07:00 42.86592 37.42855 36010 ft 452 kts 246°
2026-05-05 07:01 42.84212 37.34983 36010 ft 452 kts 246°
2026-05-05 07:01 42.81795 37.27033 36012 ft 452 kts 246°
2026-05-05 07:02 42.79388 37.19182 36005 ft 452 kts 246°
2026-05-05 07:02 42.76975 37.11286 36005 ft 452 kts 246°
2026-05-05 07:03 42.74551 37.03368 36006 ft 453 kts 246°
2026-05-05 07:03 42.72115 36.95451 36010 ft 453 kts 246°
2026-05-05 07:04 42.69607 36.87596 36019 ft 453 kts 244°
2026-05-05 07:04 42.66819 36.79907 36016 ft 453 kts 242°
2026-05-05 07:05 42.63946 36.72284 36013 ft 453 kts 242°
2026-05-05 07:05 42.61122 36.64653 36011 ft 453 kts 243°
2026-05-05 07:06 42.58353 36.57028 36012 ft 453 kts 243°
2026-05-05 07:06 42.55563 36.49354 36015 ft 453 kts 243°
2026-05-05 07:07 42.52745 36.41702 36016 ft 453 kts 243°
2026-05-05 07:07 42.49928 36.34077 36016 ft 453 kts 243°
2026-05-05 07:08 42.47109 36.26431 36009 ft 453 kts 243°
2026-05-05 07:08 42.44294 36.18834 36006 ft 454 kts 243°
2026-05-05 07:09 42.41441 36.11158 36005 ft 454 kts 243°
2026-05-05 07:09 42.38612 36.03565 36007 ft 454 kts 243°
2026-05-05 07:10 42.35759 35.95930 36012 ft 455 kts 243°
2026-05-05 07:10 42.32907 35.88311 36014 ft 455 kts 243°
2026-05-05 07:11 42.30042 35.80680 36019 ft 455 kts 243°
2026-05-05 07:11 42.27179 35.73071 36018 ft 455 kts 243°
2026-05-05 07:12 42.24304 35.65453 36019 ft 455 kts 243°
2026-05-05 07:12 42.21429 35.57855 36018 ft 455 kts 243°
2026-05-05 07:13 42.18561 35.50296 36016 ft 455 kts 243°
2026-05-05 07:13 42.15665 35.42696 36020 ft 455 kts 243°
2026-05-05 07:14 42.12782 35.35106 36007 ft 456 kts 243°
2026-05-05 07:14 42.09890 35.27468 36000 ft 458 kts 243°
2026-05-05 07:15 42.07481 35.21111 36001 ft 459 kts 243°
2026-05-05 07:15 42.04556 35.13451 36002 ft 460 kts 243°
2026-05-05 07:16 42.01011 35.06262 36007 ft 460 kts 226°
2026-05-05 07:16 41.96343 35.00445 36005 ft 460 kts 221°
2026-05-05 07:17 41.91571 34.94726 36003 ft 460 kts 221°
2026-05-05 07:17 41.86784 34.88995 35991 ft 461 kts 221°
2026-05-05 07:18 41.82003 34.83282 35993 ft 461 kts 221°
2026-05-05 07:18 41.77210 34.77562 35994 ft 461 kts 221°
2026-05-05 07:19 41.72424 34.71869 35990 ft 461 kts 221°
2026-05-05 07:19 41.67628 34.66170 35987 ft 460 kts 221°
2026-05-05 07:20 41.62824 34.60489 35988 ft 460 kts 221°
2026-05-05 07:20 41.58023 34.54821 35983 ft 460 kts 221°
2026-05-05 07:21 41.53238 34.49155 35987 ft 460 kts 221°
2026-05-05 07:21 41.48456 34.43471 35982 ft 460 kts 221°
2026-05-05 07:22 41.43706 34.37827 35980 ft 460 kts 221°
2026-05-05 07:22 41.38889 34.32115 35986 ft 460 kts 221°
2026-05-05 07:23 41.34135 34.26504 35990 ft 460 kts 221°
2026-05-05 07:23 41.29322 34.20847 36003 ft 460 kts 221°
2026-05-05 07:24 41.24534 34.15236 36005 ft 459 kts 221°
2026-05-05 07:24 41.19739 34.09630 36001 ft 458 kts 221°
2026-05-05 07:25 41.14954 34.04043 35988 ft 459 kts 221°
2026-05-05 07:25 41.10152 33.98457 35986 ft 458 kts 221°
2026-05-05 07:26 41.05348 33.92878 35982 ft 458 kts 221°
2026-05-05 07:26 41.00588 33.87350 35974 ft 459 kts 221°
2026-05-05 07:27 40.95777 33.81780 35970 ft 459 kts 221°
2026-05-05 07:27 40.90972 33.76232 35968 ft 459 kts 221°
2026-05-05 07:28 40.86151 33.70685 35964 ft 459 kts 221°
2026-05-05 07:28 40.81343 33.65150 35960 ft 459 kts 221°
2026-05-05 07:29 40.76526 33.59606 35961 ft 459 kts 221°
2026-05-05 07:29 40.71703 33.54077 35946 ft 459 kts 221°
2026-05-05 07:30 40.66881 33.48574 35948 ft 459 kts 221°
2026-05-05 07:30 40.59661 33.40345 35946 ft 460 kts 222°
2026-05-05 07:31 40.54796 33.34801 35953 ft 460 kts 222°
2026-05-05 07:31 40.49965 33.29312 35950 ft 461 kts 222°
2026-05-05 07:32 40.45100 33.23803 35943 ft 462 kts 222°
2026-05-05 07:32 40.40255 33.18328 35954 ft 462 kts 222°
2026-05-05 07:33 40.35387 33.12820 35970 ft 463 kts 222°
2026-05-05 07:33 40.30500 33.07309 35973 ft 463 kts 222°
2026-05-05 07:34 40.25603 33.01799 35984 ft 464 kts 222°
2026-05-05 07:34 40.20707 32.96308 35993 ft 464 kts 222°
2026-05-05 07:35 40.15799 32.90819 35988 ft 464 kts 222°
2026-05-05 07:35 40.10887 32.85319 35990 ft 465 kts 222°
2026-05-05 07:36 40.05751 32.80183 35974 ft 466 kts 210°
2026-05-05 07:36 39.99993 32.76291 35974 ft 466 kts 208°
2026-05-05 07:37 39.94218 32.72411 35977 ft 467 kts 208°
2026-05-05 07:37 39.88451 32.68540 35982 ft 467 kts 208°
2026-05-05 07:38 39.82700 32.64697 35988 ft 467 kts 208°
2026-05-05 07:38 39.76908 32.60847 35975 ft 467 kts 208°
2026-05-05 07:39 39.71112 32.56991 35978 ft 468 kts 208°
2026-05-05 07:39 39.65329 32.53141 35975 ft 468 kts 208°
2026-05-05 07:40 39.59527 32.49292 35982 ft 468 kts 208°
2026-05-05 07:40 39.53732 32.45458 35991 ft 468 kts 208°
2026-05-05 07:41 39.47924 32.41624 36001 ft 468 kts 208°
2026-05-05 07:41 39.42120 32.37787 36008 ft 468 kts 208°
2026-05-05 07:42 39.36323 32.33980 35992 ft 468 kts 208°
2026-05-05 07:42 39.30502 32.30190 35989 ft 468 kts 208°
2026-05-05 07:43 39.24713 32.26428 36001 ft 468 kts 208°
2026-05-05 07:43 39.18853 32.22624 36000 ft 468 kts 208°
2026-05-05 07:44 39.13039 32.18844 36004 ft 468 kts 208°
2026-05-05 07:44 39.07250 32.15087 36009 ft 468 kts 208°
2026-05-05 07:45 39.01421 32.11325 36012 ft 468 kts 208°
2026-05-05 07:45 38.95591 32.07574 36013 ft 468 kts 208°
2026-05-05 07:46 38.89777 32.03829 35986 ft 468 kts 209°
2026-05-05 07:46 38.83949 32.00077 35991 ft 468 kts 209°
2026-05-05 07:47 38.78128 31.96334 35749 ft 467 kts 209°
2026-05-05 07:47 38.75225 31.94478 35338 ft 462 kts 209°
2026-05-05 07:47 38.72363 31.92655 34946 ft 457 kts 209°
2026-05-05 07:48 38.69532 31.90853 34569 ft 453 kts 209°
2026-05-05 07:48 38.66719 31.89058 34188 ft 448 kts 209°
2026-05-05 07:48 38.63974 31.87303 33744 ft 445 kts 210°
2026-05-05 07:48 38.61173 31.85509 33199 ft 444 kts 210°
2026-05-05 07:49 38.58414 31.83745 32648 ft 443 kts 211°
2026-05-05 07:49 38.55684 31.82000 32152 ft 443 kts 211°
2026-05-05 07:49 38.52934 31.80247 31627 ft 442 kts 211°
2026-05-05 07:49 38.50174 31.78494 31080 ft 441 kts 211°
2026-05-05 07:50 38.47431 31.76754 30588 ft 440 kts 212°
2026-05-05 07:50 38.44679 31.75009 30099 ft 440 kts 212°
2026-05-05 07:50 38.41941 31.73277 29548 ft 439 kts 212°
2026-05-05 07:50 38.39200 31.71544 28990 ft 439 kts 212°
2026-05-05 07:51 38.36468 31.69818 28447 ft 438 kts 212°
2026-05-05 07:51 38.33747 31.68087 27895 ft 437 kts 212°
2026-05-05 07:51 38.31043 31.66312 27362 ft 435 kts 213°
2026-05-05 07:51 38.28373 31.64517 26845 ft 434 kts 213°
2026-05-05 07:52 38.25720 31.62713 26342 ft 432 kts 213°
2026-05-05 07:52 38.23075 31.60915 25838 ft 431 kts 213°
2026-05-05 07:52 38.20458 31.59145 25351 ft 430 kts 212°
2026-05-05 07:52 38.17789 31.57350 24868 ft 428 kts 212°
2026-05-05 07:53 38.15158 31.55591 24380 ft 427 kts 212°
2026-05-05 07:53 38.12523 31.53836 23916 ft 426 kts 211°
2026-05-05 07:53 38.09942 31.52120 23374 ft 424 kts 212°
2026-05-05 07:53 38.07338 31.50390 22825 ft 422 kts 212°
2026-05-05 07:54 38.04745 31.48666 22284 ft 420 kts 211°
2026-05-05 07:54 38.02160 31.46949 21741 ft 419 kts 211°
2026-05-05 07:54 37.99575 31.45233 21242 ft 417 kts 211°
2026-05-05 07:54 37.97022 31.43542 20829 ft 412 kts 210°
2026-05-05 07:55 37.94500 31.41873 20419 ft 407 kts 210°
2026-05-05 07:55 37.91994 31.40212 20020 ft 403 kts 211°
2026-05-05 07:55 37.89530 31.38576 19617 ft 398 kts 210°
2026-05-05 07:55 37.87093 31.36959 19238 ft 394 kts 210°
2026-05-05 07:56 37.84679 31.35361 18854 ft 390 kts 210°
2026-05-05 07:56 37.82278 31.33772 18476 ft 387 kts 210°
2026-05-05 07:56 37.79915 31.32210 18194 ft 380 kts 209°
2026-05-05 07:56 37.77601 31.30681 17919 ft 372 kts 209°
2026-05-05 07:57 37.75328 31.29182 17645 ft 364 kts 210°
2026-05-05 07:57 37.73107 31.27721 17373 ft 358 kts 210°
2026-05-05 07:57 37.70914 31.26280 17113 ft 351 kts 210°
2026-05-05 07:57 37.68793 31.24885 16945 ft 343 kts 210°
2026-05-05 07:58 37.66672 31.23489 16762 ft 336 kts 210°
2026-05-05 07:58 37.65309 31.22593 16652 ft 331 kts 210°
2026-05-05 07:58 37.62622 31.20829 16436 ft 322 kts 210°
2026-05-05 07:58 37.61312 31.19969 16340 ft 318 kts 210°
2026-05-05 07:59 37.59367 31.18693 16186 ft 311 kts 210°
2026-05-05 07:59 37.57466 31.17445 16025 ft 307 kts 210°
2026-05-05 07:59 37.55565 31.16210 15702 ft 309 kts 207°
2026-05-05 07:59 37.52856 31.15020 15238 ft 314 kts 193°
2026-05-05 08:00 37.51409 31.14702 15008 ft 315 kts 187°
2026-05-05 08:00 37.49216 31.14407 14684 ft 317 kts 186°
2026-05-05 08:00 37.47024 31.14105 14369 ft 317 kts 186°
2026-05-05 08:00 37.44825 31.13796 14079 ft 316 kts 186°
2026-05-05 08:01 37.42655 31.13490 13845 ft 313 kts 186°
2026-05-05 08:01 37.40496 31.13186 13588 ft 310 kts 187°
2026-05-05 08:01 37.38391 31.12893 13361 ft 307 kts 186°
2026-05-05 08:01 37.36284 31.12601 13146 ft 302 kts 186°
2026-05-05 08:02 37.34208 31.12313 12919 ft 299 kts 186°
2026-05-05 08:02 37.32160 31.12028 12722 ft 294 kts 186°
2026-05-05 08:02 37.30131 31.11744 12512 ft 291 kts 186°
2026-05-05 08:02 37.28133 31.11464 12316 ft 288 kts 186°
2026-05-05 08:03 37.26149 31.11184 12096 ft 286 kts 186°
2026-05-05 08:03 37.24172 31.10906 11892 ft 286 kts 186°
2026-05-05 08:03 37.22196 31.10629 11690 ft 284 kts 186°
2026-05-05 08:03 37.20236 31.10361 11476 ft 284 kts 186°
2026-05-05 08:04 37.18288 31.10099 11282 ft 281 kts 186°
2026-05-05 08:04 37.16351 31.09839 11079 ft 279 kts 186°
2026-05-05 08:04 37.14447 31.09421 10876 ft 278 kts 197°
2026-05-05 08:04 37.12646 31.08541 10677 ft 277 kts 208°
2026-05-05 08:05 37.10959 31.07390 10544 ft 276 kts 210°
2026-05-05 08:05 37.09303 31.06272 10419 ft 275 kts 209°
2026-05-05 08:05 37.07595 31.05124 10309 ft 274 kts 209°
2026-05-05 08:05 37.05932 31.04007 10179 ft 273 kts 210°
2026-05-05 08:06 37.04260 31.02886 10059 ft 273 kts 209°
2026-05-05 08:06 37.02590 31.01769 9935 ft 273 kts 209°
2026-05-05 08:06 37.00923 31.00656 9818 ft 272 kts 209°
2026-05-05 08:06 36.99248 30.99536 9690 ft 271 kts 209°
2026-05-05 08:07 36.97593 30.98428 9546 ft 270 kts 209°
2026-05-05 08:07 36.95929 30.97316 9412 ft 270 kts 209°
2026-05-05 08:07 36.94277 30.96214 9204 ft 269 kts 209°
2026-05-05 08:07 36.92632 30.95114 8914 ft 267 kts 210°
2026-05-05 08:08 36.90980 30.94065 8677 ft 267 kts 202°
2026-05-05 08:08 36.89190 30.93458 8471 ft 266 kts 187°
2026-05-05 08:08 36.87345 30.93267 8238 ft 265 kts 184°
2026-05-05 08:08 36.85505 30.93092 8011 ft 266 kts 184°
2026-05-05 08:09 36.83664 30.92910 7774 ft 265 kts 185°
2026-05-05 08:09 36.81866 30.92730 7546 ft 259 kts 185°
2026-05-05 08:09 36.80086 30.92554 7291 ft 255 kts 185°
2026-05-05 08:09 36.78306 30.92379 7040 ft 252 kts 185°
2026-05-05 08:10 36.76583 30.92209 6787 ft 251 kts 185°
2026-05-05 08:10 36.74849 30.92037 6517 ft 250 kts 185°
2026-05-05 08:10 36.73117 30.91867 6239 ft 250 kts 185°
2026-05-05 08:10 36.71382 30.91696 5957 ft 248 kts 185°
2026-05-05 08:11 36.69680 30.91443 5659 ft 245 kts 197°
2026-05-05 08:11 36.68197 30.90488 5378 ft 239 kts 225°
2026-05-05 08:11 36.67217 30.88876 5097 ft 232 kts 251°
2026-05-05 08:11 36.66889 30.86960 4829 ft 223 kts 276°
2026-05-05 08:12 36.67194 30.85120 4554 ft 215 kts 298°
2026-05-05 08:12 36.68024 30.83625 4266 ft 206 kts 320°
2026-05-05 08:12 36.69073 30.82493 3988 ft 195 kts 322°
2026-05-05 08:12 36.70064 30.81422 3708 ft 186 kts 322°
2026-05-05 08:13 36.71022 30.80379 3448 ft 179 kts 322°
2026-05-05 08:13 36.71926 30.79393 3319 ft 166 kts 322°
2026-05-05 08:13 36.72778 30.78468 3167 ft 159 kts 322°
2026-05-05 08:13 36.73640 30.77648 3055 ft 154 kts 334°
2026-05-05 08:14 36.74609 30.77257 2921 ft 140 kts 352°
2026-05-05 08:14 36.75576 30.77291 2748 ft 137 kts
2026-05-05 08:14 36.76515 30.77419 2571 ft 135 kts
2026-05-05 08:14 36.77441 30.77545 2399 ft 135 kts
2026-05-05 08:15 36.78375 30.77673 2222 ft 135 kts
2026-05-05 08:15 36.79313 30.77799 2029 ft 134 kts
2026-05-05 08:15 36.80236 30.77922 1853 ft 133 kts
2026-05-05 08:15 36.81160 30.78050 1669 ft 134 kts
2026-05-05 08:16 36.82078 30.78173 1491 ft 133 kts
2026-05-05 08:16 36.82995 30.78300 1349 ft 132 kts
2026-05-05 08:16 36.83917 30.78425 1138 ft 134 kts
2026-05-05 08:16 36.84847 30.78554 950 ft 135 kts
2026-05-05 08:17 36.85794 30.78682 753 ft 136 kts
2026-05-05 08:17 36.86720 30.78808 615 ft 132 kts
2026-05-05 08:17 36.87634 30.78954 405 ft 131 kts
2026-05-05 08:17 36.88534 30.79073 207 ft 129 kts
2026-05-05 08:18 36.89324 30.79172 203 ft 93 kts
2026-05-05 08:18 36.89801 30.79234 203 ft 49 kts
2026-05-05 08:18 36.90107 30.79278 190 ft 41 kts
2026-05-05 08:18 36.90317 30.79345 198 ft 28 kts 32°
2026-05-05 08:19 36.90417 30.79433 190 ft 7 kts 36°
2026-05-05 08:19 36.90444 30.79458 195 ft 3 kts 36°
2026-05-05 08:19 36.90459 30.79471 201 ft 2 kts 36°
2026-05-05 08:19 36.90467 30.79479 196 ft 1 kts 36°
2026-05-05 08:20 36.90469 30.79481 195 ft 0 kts 36°
2026-05-05 08:21 36.90482 30.79493 203 ft 3 kts 36°
2026-05-05 08:21 36.90507 30.79515 198 ft 5 kts 36°
2026-05-05 08:21 36.90542 30.79547 195 ft 7 kts 35°
2026-05-05 08:22 36.90587 30.79587 207 ft 9 kts 36°
2026-05-05 08:22 36.90664 30.79658 201 ft 16 kts 37°
2026-05-05 08:22 36.90762 30.79730 191 ft 18 kts 12°
2026-05-05 08:22 36.90882 30.79768 204 ft 19 kts 39°
2026-05-05 08:23 36.90977 30.79850 200 ft 17 kts
2026-05-05 08:23 36.91103 30.79866 195 ft 19 kts
2026-05-05 08:23 36.91228 30.79885 196 ft 18 kts
2026-05-05 08:23 36.91351 30.79901 195 ft 16 kts
2026-05-05 08:24 36.91409 30.79888 195 ft 8 kts 309°
2026-05-05 08:24 36.91418 30.79836 191 ft 4 kts 275°
2026-05-05 08:24 36.91419 30.79818 201 ft 1 kts 274°
2026-05-05 08:24 36.91419 30.79814 202 ft 0 kts 274°